User: anonymous   Login
Location: Ostrava
(49.8330°N, 18.2830°E)
Time: 17:52:32
(UTC+02:00)
Language:

NOAA 19 - Orbit

View from above orbital plane
View from above orbital plane
View from above satellite
View from above satellite

Ground track
Ground track

The orbit data is extracted from the following two-line orbital elements,

1 33591U 09005A   15147.40321000  .00000107  00000-0  83421-4 0  9993
2 33591 098.9883 097.2334 0013123 226.1029 133.9059 14.11936773324559
Epoch (UTC): 27 May 2015 09:40:37
Eccentricity: 0.0013123
inclination: 98.9883°
perigee height: 843 km
apogee height: 862 km
right ascension of ascending node: 97.2334°
argument of perigee: 226.1029°
revolutions per day: 14.11936773
mean anomaly at epoch: 133.9059°
orbit number at epoch: 32455

The dashed part of the orbit path shows where the satellite is in the earth's shadow,  

DLR